| time (UTC) | temp F | wind direction | speed MPH | gust MPH | rain 1hr in | rain 24hr in | rain mn in | humidity % | barometer mb |
| 20260509141003 | 72 | 112 | 0.0 | 2.0 | 0.00 | 0.00 | 0.00 | 58 | 1018.5 |
| 20260509140005 | 70 | 92 | 0.0 | 1.0 | 0.00 | 0.00 | 0.00 | 60 | 1018.4 |
| 20260509135004 | 68 | 26 | 0.0 | 2.0 | 0.00 | 0.00 | 0.00 | 63 | 1018.4 |
| 20260509134004 | 70 | 61 | 1.0 | 3.0 | 0.00 | 0.00 | 0.00 | 60 | 1018.4 |
| 20260509133004 | 66 | 123 | 2.0 | 3.0 | 0.00 | 0.00 | 0.00 | 66 | 1018.4 |
| 20260509131003 | 62 | 90 | 0.0 | 0.0 | 0.00 | 0.00 | 0.00 | 73 | 1018.4 |
| 20260509130004 | 60 | 90 | 0.0 | 1.0 | 0.00 | 0.00 | 0.00 | 75 | 1018.2 |
| 20260509125004 | 60 | 234 | 0.0 | 2.0 | 0.00 | 0.00 | 0.00 | 76 | 1018.2 |
| 20260509124004 | 60 | 284 | 0.0 | 1.0 | 0.00 | 0.00 | 0.00 | 75 | 1018.2 |
| 20260509123004 | 60 | 106 | 0.0 | 1.0 | 0.00 | 0.00 | 0.00 | 76 | 1018.2 |
| 20260509122005 | 60 | 90 | 0.0 | 1.0 | 0.00 | 0.00 | 0.00 | 75 | 1017.9 |
| 20260509121004 | 60 | 127 | 0.0 | 3.0 | 0.00 | 0.00 | 0.00 | 74 | 1017.9 |
| 20260509115004 | 60 | 105 | 1.0 | 2.0 | 0.00 | 0.00 | 0.00 | 75 | 1017.8 |
| 20260509114004 | 60 | 144 | 0.0 | 2.0 | 0.00 | 0.00 | 0.00 | 75 | 1017.7 |
| 20260509113003 | 60 | 91 | 1.0 | 2.0 | 0.00 | 0.00 | 0.00 | 75 | 1017.7 |
| 20260509112003 | 60 | 103 | 1.0 | 2.0 | 0.00 | 0.00 | 0.00 | 76 | 1017.6 |
| 20260509111004 | 60 | 135 | 0.0 | 2.0 | 0.00 | 0.00 | 0.00 | 76 | 1017.7 |
| 20260509105003 | 61 | 246 | 1.0 | 2.0 | 0.00 | 0.00 | 0.00 | 74 | 1017.5 |
| 20260509104003 | 61 | 284 | 0.0 | 1.0 | 0.00 | 0.00 | 0.00 | 74 | 1017.5 |
| 20260509103004 | 61 | 100 | 1.0 | 1.0 | 0.00 | 0.00 | 0.00 | 74 | 1017.3 |
| 20260509102005 | 62 | 90 | 0.0 | 1.0 | 0.00 | 0.00 | 0.00 | 74 | 1017.6 |
| 20260509101004 | 61 | 90 | 0.0 | 1.0 | 0.00 | 0.00 | 0.00 | 72 | 1017.3 |
| 20260509100005 | 61 | 261 | 0.0 | 2.0 | 0.00 | 0.00 | 0.00 | 71 | 1017.5 |
| 20260509095004 | 61 | 123 | 0.0 | 2.0 | 0.00 | 0.00 | 0.00 | 71 | 1017.5 |
| 20260509094004 | 62 | 279 | 0.0 | 1.0 | 0.00 | 0.00 | 0.00 | 70 | 1017.5 |
| 20260509093004 | 62 | 263 | 0.0 | 1.0 | 0.00 | 0.00 | 0.00 | 70 | 1017.3 |
| 20260509092003 | 62 | 195 | 0.0 | 2.0 | 0.00 | 0.00 | 0.00 | 69 | 1017.3 |
| 20260509091003 | 63 | 250 | 0.0 | 2.0 | 0.00 | 0.00 | 0.00 | 68 | 1017.5 |
| 20260509090004 | 63 | 203 | 1.0 | 1.0 | 0.00 | 0.00 | 0.00 | 67 | 1017.3 |
| 20260509084004 | 63 | 139 | 0.0 | 1.0 | 0.00 | 0.00 | 0.00 | 66 | 1017.6 |
| 20260509082003 | 63 | 135 | 2.0 | 3.0 | 0.00 | 0.00 | 0.00 | 66 | 1017.8 |
| 20260509081005 | 64 | 126 | 1.0 | 3.0 | 0.00 | 0.00 | 0.00 | 64 | 1017.7 |
| 20260509075004 | 63 | 77 | 1.0 | 1.0 | 0.00 | 0.00 | 0.00 | 67 | 1017.8 |
| 20260509074004 | 63 | 113 | 0.0 | 3.0 | 0.00 | 0.00 | 0.00 | 67 | 1018.3 |
| 20260509072003 | 64 | 234 | 0.0 | 2.0 | 0.00 | 0.00 | 0.00 | 66 | 1018.2 |
| 20260509071005 | 64 | 225 | 1.0 | 2.0 | 0.00 | 0.00 | 0.00 | 67 | 1018.2 |
| 20260509070004 | 64 | 270 | 0.0 | 1.0 | 0.00 | 0.00 | 0.00 | 66 | 1018.5 |
| 20260509064004 | 65 | 306 | 2.0 | 5.0 | 0.00 | 0.00 | 0.00 | 61 | 1018.4 |
| 20260509062005 | 65 | 112 | 0.0 | 3.0 | 0.00 | 0.00 | 0.00 | 54 | 1018.5 |
| 20260509061004 | 66 | 248 | 1.0 | 6.0 | 0.00 | 0.00 | 0.00 | 56 | 1018.7 |
| 20260509060005 | 67 | 104 | 0.0 | 3.0 | 0.00 | 0.00 | 0.00 | 55 | 1018.7 |
| 20260509054004 | 66 | 99 | 2.0 | 3.0 | 0.00 | 0.00 | 0.00 | 63 | 1018.9 |
| 20260509053004 | 67 | 320 | 0.0 | 5.0 | 0.00 | 0.00 | 0.00 | 62 | 1019.0 |
| 20260509052004 | 69 | 82 | 0.0 | 3.0 | 0.00 | 0.00 | 0.00 | 55 | 1018.9 |
| 20260509050004 | 70 | 76 | 1.0 | 9.0 | 0.00 | 0.00 | 0.00 | 53 | 1018.4 |
| 20260509045004 | 70 | 96 | 3.0 | 9.0 | 0.00 | 0.00 | 0.00 | 52 | 1018.4 |
| 20260509044004 | 69 | 67 | 2.0 | 22.0 | 0.00 | 0.00 | 0.00 | 52 | 1018.2 |
| 20260509043004 | 70 | 138 | 6.0 | 22.0 | 0.00 | 0.00 | 0.00 | 52 | 1017.8 |
| 20260509042004 | 69 | 137 | 5.0 | 21.0 | 0.00 | 0.00 | 0.00 | 55 | 1017.5 |
| 20260509041004 | 70 | 154 | 8.0 | 25.0 | 0.00 | 0.00 | 0.00 | 54 | 1017.4 |
| 20260509040005 | 71 | 139 | 9.0 | 20.0 | 0.00 | 0.00 | 0.00 | 56 | 1017.4 |
| 20260509035005 | 71 | 138 | 7.0 | 20.0 | 0.00 | 0.00 | 0.00 | 56 | 1017.2 |
| 20260509033004 | 71 | 137 | 6.0 | 23.0 | 0.00 | 0.00 | 0.00 | 64 | 1017.0 |
| 20260509031005 | 71 | 142 | 9.0 | 26.0 | 0.00 | 0.00 | 0.00 | 63 | 1016.6 |
| 20260509030004 | 71 | 129 | 13.0 | 25.0 | 0.00 | 0.00 | 0.00 | 62 | 1016.5 |
| 20260509025005 | 71 | 151 | 12.0 | 28.0 | 0.00 | 0.00 | 0.00 | 59 | 1016.2 |
| 20260509024003 | 71 | 146 | 18.0 | 28.0 | 0.00 | 0.00 | 0.00 | 59 | 1016.1 |
| 20260509015004 | 74 | 142 | 16.0 | 22.0 | 0.00 | 0.00 | 0.00 | 57 | 1015.6 |
| 20260509014007 | 75 | 144 | 10.0 | 24.0 | 0.00 | 0.00 | 0.00 | 57 | 1015.7 |
| 20260509013004 | 76 | 127 | 8.0 | 23.0 | 0.00 | 0.00 | 0.00 | 55 | 1015.5 |
| 20260509012004 | 76 | 98 | 6.0 | 22.0 | 0.00 | 0.00 | 0.00 | 54 | 1015.4 |
| 20260509010004 | 77 | 153 | 12.0 | 24.0 | 0.00 | 0.00 | 0.00 | 50 | 1015.3 |
| 20260509005005 | 78 | 147 | 12.0 | 24.0 | 0.00 | 0.00 | 0.00 | 49 | 1015.2 |
| 20260509004004 | 79 | 154 | 10.0 | 23.0 | 0.00 | 0.00 | 0.00 | 47 | 1015.3 |
| 20260509002004 | 80 | 151 | 7.0 | 22.0 | 0.00 | 0.00 | 0.00 | 45 | 1015.2 |
| 20260509000004 | 81 | 152 | 7.0 | 18.0 | 0.00 | 0.00 | 0.00 | 45 | 1015.2 |
| 20260508235004 | 82 | 165 | 7.0 | 21.0 | 0.00 | 0.00 | 0.00 | 44 | 1015.2 |
| 20260508234005 | 82 | 175 | 9.0 | 16.0 | 0.00 | 0.00 | 0.00 | 44 | 1015.1 |
| 20260508233004 | 82 | 150 | 9.0 | 17.0 | 0.00 | 0.00 | 0.00 | 44 | 1015.1 |
| 20260508230005 | 84 | 155 | 5.0 | 16.0 | 0.00 | 0.00 | 0.00 | 42 | 1015.3 |
| 20260508225005 | 83 | 165 | 7.0 | 17.0 | 0.00 | 0.00 | 0.00 | 44 | 1015.3 |
| 20260508224004 | 82 | 170 | 6.0 | 23.0 | 0.00 | 0.00 | 0.00 | 45 | 1015.5 |
| 20260508223005 | 82 | 158 | 9.0 | 17.0 | 0.00 | 0.00 | 0.00 | 45 | 1015.5 |
| 20260508221004 | 83 | 137 | 5.0 | 20.0 | 0.00 | 0.00 | 0.00 | 44 | 1015.5 |
| 20260508220004 | 83 | 156 | 7.0 | 18.0 | 0.00 | 0.00 | 0.00 | 45 | 1015.6 |
| 20260508215004 | 84 | 227 | 6.0 | 17.0 | 0.00 | 0.00 | 0.00 | 43 | 1015.5 |
| 20260508214004 | 83 | 148 | 7.0 | 17.0 | 0.00 | 0.00 | 0.00 | 46 | 1015.7 |
| 20260508213008 | 83 | 165 | 6.0 | 15.0 | 0.00 | 0.00 | 0.00 | 45 | 1015.8 |
| 20260508212005 | 83 | 169 | 4.0 | 17.0 | 0.00 | 0.00 | 0.00 | 44 | 1016.0 |
| 20260508211004 | 84 | 147 | 5.0 | 15.0 | 0.00 | 0.00 | 0.00 | 44 | 1016.2 |
| 20260508210004 | 86 | 201 | 6.0 | 20.0 | 0.00 | 0.00 | 0.00 | 42 | 1016.1 |
| 20260508205005 | 86 | 155 | 11.0 | 17.0 | 0.00 | 0.00 | 0.00 | 40 | 1016.2 |
| 20260508204005 | 88 | 199 | 3.0 | 14.0 | 0.00 | 0.00 | 0.00 | 38 | 1016.2 |
| 20260508203004 | 89 | 234 | 5.0 | 12.0 | 0.00 | 0.00 | 0.00 | 37 | 1016.4 |
| 20260508202005 | 88 | 240 | 3.0 | 10.0 | 0.00 | 0.00 | 0.00 | 36 | 1016.3 |
| 20260508201005 | 89 | 166 | 3.0 | 17.0 | 0.00 | 0.00 | 0.00 | 35 | 1016.6 |
| 20260508195004 | 87 | 194 | 5.0 | 22.0 | 0.00 | 0.00 | 0.00 | 35 | 1016.7 |
| 20260508194005 | 88 | 183 | 5.0 | 15.0 | 0.00 | 0.00 | 0.00 | 35 | 1016.8 |
| 20260508193007 | 87 | 226 | 3.0 | 14.0 | 0.00 | 0.00 | 0.00 | 35 | 1017.1 |
| 20260508191004 | 86 | 167 | 6.0 | 14.0 | 0.00 | 0.00 | 0.00 | 36 | 1017.1 |
| 20260508190005 | 87 | 227 | 5.0 | 13.0 | 0.00 | 0.00 | 0.00 | 35 | 1017.3 |
| 20260508185004 | 87 | 220 | 6.0 | 13.0 | 0.00 | 0.00 | 0.00 | 36 | 1017.5 |
| 20260508183004 | 86 | 244 | 7.0 | 13.0 | 0.00 | 0.00 | 0.00 | 37 | 1017.8 |
| 20260508182004 | 87 | 197 | 2.0 | 12.0 | 0.00 | 0.00 | 0.00 | 37 | 1017.8 |
| 20260508181004 | 86 | 211 | 5.0 | 12.0 | 0.00 | 0.00 | 0.00 | 38 | 1017.9 |
| 20260508180002 | 84 | 314 | 3.0 | 8.0 | 0.00 | 0.00 | 0.00 | 37 | 1017.9 |
| 20260508174002 | 85 | 264 | 1.0 | 6.0 | 0.00 | 0.00 | 0.00 | 38 | 1018.1 |
| 20260508172002 | 83 | 317 | 1.0 | 7.0 | 0.00 | 0.00 | 0.00 | 41 | 1018.4 |
| 20260508171003 | 82 | 240 | 3.0 | 8.0 | 0.00 | 0.00 | 0.00 | 42 | 1018.4 |
| 20260508170002 | 82 | 250 | 1.0 | 7.0 | 0.00 | 0.00 | 0.00 | 45 | 1018.5 |
| 20260508164002 | 80 | 287 | 2.0 | 3.0 | 0.00 | 0.00 | 0.00 | 48 | 1018.7 |
| 20260508163003 | 78 | 267 | 1.0 | 6.0 | 0.00 | 0.00 | 0.00 | 49 | 1018.7 |
| 20260508162003 | 77 | 2 | 2.0 | 6.0 | 0.00 | 0.00 | 0.00 | 51 | 1018.9 |
| 20260508161003 | 78 | 210 | 1.0 | 3.0 | 0.00 | 0.00 | 0.00 | 49 | 1019.0 |
| 20260508160002 | 76 | 97 | 2.0 | 5.0 | 0.00 | 0.00 | 0.00 | 51 | 1019.1 |
| 20260508155004 | 75 | 291 | 3.0 | 5.0 | 0.00 | 0.00 | 0.00 | 52 | 1019.1 |
| 20260508153003 | 73 | 92 | 2.0 | 5.0 | 0.00 | 0.00 | 0.00 | 56 | 1019.2 |
| 20260508151003 | 74 | 16 | 1.0 | 3.0 | 0.00 | 0.00 | 0.00 | 55 | 1019.1 |
| 20260508145003 | 69 | 15 | 1.0 | 3.0 | 0.00 | 0.00 | 0.00 | 62 | 1019.1 |
| 20260508144002 | 69 | 49 | 1.0 | 3.0 | 0.00 | 0.00 | 0.00 | 62 | 1019.0 |
| 20260508143003 | 71 | 26 | 1.0 | 3.0 | 0.00 | 0.00 | 0.00 | 61 | 1019.1 |
| 20260508142003 | 70 | 123 | 1.0 | 2.0 | 0.00 | 0.00 | 0.00 | 62 | 1019.0 |